Regional Weather Roundup
Issued by NWS

Home | Current Version | Previous Version | Graphics & Text | Print | Product List | Glossary On
Versions: 1 2 3 4 5 6 7 8 9 10 11 12 13 14 15 16 17 18 19 20 21 22 23 24 25 26 27 28 29 30 31 32 33 34 35 36 37 38 39 40 41 42 43 44 45 46 47 48 49 50
000
ASUS45 KTFX 201110
RWRMT
MONTANA REGIONAL WEATHER ROUNDUP
NATIONAL WEATHER SERVICE GREAT FALLS MT
400 AM MST MON NOV 20 2017

NOTE: "FAIR" INDICATES FEW OR NO CLOUDS BELOW 12000 FEET WITH NO
SIGNIFICANT WEATHER AND/OR OBSTRUCTIONS TO VISIBILITY.

MTZ001>007-043-201200-
WEST OF THE DIVIDE

CITY           SKY/WX    TMP DP  RH WIND       PRES   REMARKS
KALISPELL      LGT RAIN  40  32  73 SW12      29.67R
MISSOULA       CLOUDY    41  30  65 NW8       29.76S
BUTTE          MOCLDY    30  12  47 SE6       29.76F WCI  24
MULLAN PASS    SNOW      26  24  92 VRB5G22   29.68R VSB 1/4
ANACONDA         N/A     43  14  31 S9G26     29.73S
DEER LODGE       N/A     39  19  45 SE15G21   29.72F WCI  31
EUREKA           N/A     43  28  56 MISG      29.64R
HAMILTON         N/A     45  28  53 S14       29.77S
LIBBY            N/A     39  36  87 SW5G17    29.64F
PLAINS           N/A     42  30  62 SW1       29.75
RONAN            N/A     42  28  58 S1        29.78R
$$

MTZ008-052>055-201200-
SOUTHWEST MONTANA

CITY           SKY/WX    TMP DP  RH WIND       PRES   REMARKS
BOZEMAN        FAIR      35  20  54 NE6       29.75F WCI  30
DILLON         CLOUDY    44  12  27 S16       29.81R
W YELLOWSTONE  FAIR      28  16  59 S10G17    29.95R WCI  19
ENNIS          CLOUDY    39  12  33 S21G29    29.85F WCI  29
TWIN BRIDGES     N/A     43  11  27 SE7       29.80R
$$

MTZ009-010-012-014-046-048-049-054-201200-
EAST SLOPES AND CENTRAL MONTANA

CITY           SKY/WX    TMP DP  RH WIND       PRES   REMARKS
CUT BANK       FAIR      39  24  55 W48G68    29.38R WCI  24
GREAT FALLS    FAIR      46   9  22 SW20      29.50S
MALMSTROM AFB  MOCLDY    48  10  21 SW22G33   29.49F
HELENA         FAIR      44  16  32 W8        29.62F
BOWMANS CRNR   FAIR      42  18  37 SW32G40   29.50F
CHOTEAU          N/A     43  23  45 W39G55    29.42R
FAIRFIELD        N/A     43  20  40 N5        29.51R
POWER          MOCLDY    44  20  39 SW30G44   29.49F
RAYNESFORD     MOCLDY    51  10  19 W28G38    29.52S
ULM            MOCLDY    50  12  21 SW23G36   29.50F
$$

MTZ011-013-016-021-045-047-050-051-201200-
NORTH CENTRAL MONTANA

CITY           SKY/WX    TMP DP  RH WIND       PRES   REMARKS
HAVRE          FAIR      38  22  52 W15       29.43S WCI  29
LEWISTOWN      FAIR      47  12  24 SW22G35   29.52F
N BAR RANCH    FAIR      46   9  21 SW12G17   29.52F
CHINOOK          N/A     37  19  48 W6        29.40F
DENTON         MOCLDY    49  11  21 MISG      29.43F
GEYSER         FAIR      47  10  21 W38G47    29.42F
GRASS RANGE    MOCLDY    51  10  18 W35G45    29.43F
STANFORD       MOCLDY    42  11  28 E3        29.48F
WINIFRED       MOCLDY    47  11  23 W26G32    29.47F
$$

MTZ017>020-022>027-061-062-201200-
NORTHEAST MONTANA

CITY           SKY/WX    TMP DP  RH WIND       PRES   REMARKS
GLASGOW        FAIR      49  17  28 W18       29.39F
GLENDIVE       FAIR      44  19  36 SW14      29.47F
JORDAN           N/A     44  20  38 W16       29.47S
SIDNEY         FAIR      36  22  56 SW13      29.43F WCI  27
WOLF POINT     MOCLDY    31  21  66 W3        29.40F
MALTA          PTCLDY    39  18  41 W7        29.41F
PLENTYWOOD       N/A     36  19  51 CALM      29.36F
POPLAR           N/A     34  19  55 SW8       29.41F WCI  27
SCOBEY           N/A     41  16  36 SW6       29.40F
$$

MTZ028>42-056>058-201200-
SOUTHCENTRAL AND SOUTHEAST MONTANA

CITY           SKY/WX    TMP DP  RH WIND       PRES   REMARKS
BAKER          FAIR      39  20  46 SW15      29.52F WCI  31
BILLINGS       FAIR      45  14  28 SW10      29.59F
LIVINGSTON     FAIR      43  17  35 SW41G58   29.67R
MILES CITY     FAIR      41  22  46 W13       29.50F
BIG TIMBER     CLEAR     43  16  33 W30G43    29.60F
EKALAKA          N/A     47  11  23 S5        29.57
FORSYTH          N/A     52  12  20 W14       29.51F
HARLOWTON      FAIR      40  17  39 NW12G18   29.57F
LAUREL           N/A     43  14  31 SW16      29.62F
ROUNDUP          N/A     41  14  33 S6        29.52F
$$

REGIONAL REPORTS...DAKOTAS

CITY           SKY/WX    TMP DP  RH WIND       PRES   REMARKS
WILLISTON      FAIR      33  23  66 SW7       29.41F WCI  27
MINOT          MOCLDY    41  22  46 SW16      29.38F
DICKINSON      FAIR      37  19  48 W12       29.45F WCI  29
BEACH          FAIR      39  18  41 W15       29.52S WCI  31
CROSBY         FAIR      32  23  69 SW15      29.36F WCI  22
TIOGA          CLOUDY    34  21  60 SW15      29.40F WCI  24
BISMARCK       FAIR      29  21  72 SE3       29.50F
GRAND FORKS    FAIR      28  24  85 S12       29.48F WCI  18
FARGO          FAIR      30  22  72 S10       29.53F WCI  21
BUFFALO SD       N/A     42  16  34 W16       29.48F
RAPID CITY     FAIR      32  16  51 S3        29.60F
$$

REGIONAL REPORTS...WYOMING/IDAHO/WASHINGTON

CITY           SKY/WX    TMP DP  RH WIND       PRES   REMARKS
GILLETTE       FAIR      44  11  26 SW23G35   29.64S
SHERIDAN       FAIR      55  10  16 W21G36    29.62F
BUFFALO WY     FAIR      53   4  13 W3        29.66F
CODY           FAIR      46   8  21 E13       29.70F
YELLOWSTONE LA   N/A     15  13  91 W3        29.96S
IDAHO FALLS    CLOUDY    30  24  78 SE3       30.00S
SALMON         CLOUDY    34  23  64 NW3       29.88F
BOISE          CLOUDY    47  27  45 SE13      29.93F
SPOKANE        FLURRIES  40  37  89 S17G24    29.67F
$$

REGIONAL REPORTS...ALBERTA

CITY           SKY/WX    TMP DP  RH WIND       PRES   REMARKS
EDMONTON       CLOUDY    12   3  67 NW12G17   29.52R WCI  -2
CALGARY        FLURRIES  27  23  86 N17       29.46R WCI  14
LETHBRIDGE     CLEAR     37  28  70 SW33G41   29.36R WCI  24
MEDICINE HAT   CLOUDY    34  27  75 W6        29.41R WCI  29
$$

REGIONAL REPORTS...SASKATCHEWAN

CITY           SKY/WX    TMP DP  RH WIND       PRES   REMARKS
SWIFT CURRENT  MOCLDY    37  25  60 W30G39    29.26F WCI  25
REGINA         CLOUDY    34  25  69 SW18      29.25F WCI  23
SASKATOON      CLOUDY    12   9  85 NW8       29.25R WCI   1
$$



USA.gov is the U.S. government's official web portal to all federal, state and local government web resources and services.